Location: ?
(35.4214°N, 139.3011°E)
Time: 02:11:29
(UTC+00:00)

CZ-2C R/B - Visible Passes

Search period start: 23 October 2020 00:00
Search period end: 02 November 2020 00:00
Orbit: 785 x 870 km, 98.2° (Epoch: 22 October)

Date Brightness Start Highest point End Pass type
(mag) Time Alt. Az. Time Alt. Az. Time Alt. Az.
23 Oct 5.0 10:16:48 11° S 10:16:48 11° S 10:17:00 10° S visible
24 Oct 4.9 09:58:06 10° S 09:58:06 10° S 09:58:10 10° S visible
24 Oct6.011:39:37SW11:39:37SW11:26:14Nvisible
26 Oct 5.0 20:31:25 10° ESE 20:35:55 26° ENE 20:40:27 10° NNE visible
27 Oct 5.4 20:13:57 10° ESE 20:17:33 18° ENE 20:21:11 10° NNE visible
28 Oct 5.6 19:57:15 10° E 19:59:15 12° ENE 20:01:16 10° NE visible
01 Nov 5.2 20:20:47 10° ESE 20:24:53 21° ENE 20:28:59 10° NNE visible
